Caslav, Czech Republic

10:54 PM CET on January 17, 2017 (GMT +0100)
Caslav

Weather History for LKCV - March, 2013

Change the Weather History Date:

Friday, March 1, 2013

  Actual Average Record
Temperature  
Mean Temperature 34 °F -  
Max Temperature 37 °F - - ()
Min Temperature 30 °F - - ()
Degree Days  
Heating Degree Days 30    
Moisture  
Dew Point 32 °F    
Average Humidity 90    
Maximum Humidity 100    
Minimum Humidity 81    
Precipitation  
Precipitation 0.00 in - - ()
Sea Level Pressure  
Sea Level Pressure 30.13 in    
Wind  
Wind Speed 8 mph ()    
Max Wind Speed 13 mph    
Max Gust Speed -    
Visibility 6.1 miles    
Events      
T = Trace of Precipitation, MM = Missing Value Source: Averaged Metar Reports

Daily Weather History Graph

Daily Weather History Graph

Search for Another Location

Airport or City:

Trip Planner

Search our weather history database for the weather conditions in past years. The results will help you decide how hot, cold, wet, or windy it might be!

Date:

Astronomy

Mar. 01, 2013 Rise Set
Actual Time 6:41 AM CET 5:40 PM CET
Civil Twilight 6:09 AM CET 6:13 PM CET
Nautical Twilight 5:32 AM CET 6:50 PM CET
Astronomical Twilight 4:54 AM CET 7:28 PM CET
Moon 10:25 PM CET (3/1) 7:50 AM CET (3/1)
Length of Visible Light 12h 03m
Length of Day
10h 59m
Waning Gibbous, 85% of the Moon is Illuminated
Mar 1
Waning Gibbous
Mar 4
Last Quarter
Mar 11
New
Mar 19
First Quarter
Mar 27
Full

Hourly Weather History & Observations

Time (CET) Temp. Windchill Dew Point Humidity Pressure Visibility Wind Dir Wind Speed Gust Speed Precip Events Conditions
12:00 AM 35.6 °F 29.9 °F 33.8 °F 93% 30.18 in 6.2 mi WNW 6.9 mph - N/A   Overcast
1:00 AM 35.6 °F 29.2 °F 33.8 °F 93% 30.15 in 6.2 mi WNW 8.1 mph - N/A   Overcast
2:00 AM 35.6 °F 29.2 °F 33.8 °F 93% 30.15 in 6.2 mi WNW 8.1 mph - N/A   Overcast
3:00 AM 33.8 °F 27.0 °F 32.0 °F 93% 30.12 in 6.2 mi WNW 8.1 mph - N/A   Overcast
4:00 AM 33.8 °F 27.0 °F 32.0 °F 93% 30.12 in 6.2 mi West 8.1 mph - N/A   Overcast
5:00 AM 33.8 °F 27.7 °F 32.0 °F 93% 30.12 in 6.2 mi West 6.9 mph - N/A   Overcast
6:00 AM 33.8 °F 28.6 °F 33.8 °F 100% 30.12 in 6.2 mi West 5.8 mph - N/A   Overcast
7:00 AM 33.8 °F 27.7 °F 32.0 °F 93% 30.12 in 5.0 mi WNW 6.9 mph - N/A   Overcast
8:00 AM 33.8 °F 26.4 °F 32.0 °F 93% 30.12 in 6.2 mi WNW 9.2 mph - N/A   Overcast
9:00 AM 33.8 °F 25.3 °F 32.0 °F 93% 30.12 in 6.2 mi WNW 11.5 mph - N/A   Overcast
10:00 AM 33.8 °F 26.4 °F 32.0 °F 93% 30.12 in 6.2 mi NW 9.2 mph - N/A   Light Drizzle
11:00 AM 33.8 °F 25.8 °F 33.8 °F 100% 30.12 in 5.0 mi WNW 10.4 mph - N/A   Light Drizzle
12:00 PM 35.6 °F 28.0 °F 33.8 °F 93% 30.12 in 6.2 mi West 10.4 mph - N/A   Overcast
1:00 PM 35.6 °F 27.1 °F 33.8 °F 93% 30.12 in 6.2 mi WNW 12.7 mph - N/A   Light Drizzle
2:00 PM 37.4 °F 30.3 °F 33.8 °F 87% 30.12 in 6.2 mi WNW 10.4 mph - N/A   Overcast
3:00 PM 37.4 °F 30.3 °F 32.0 °F 81% 30.09 in 6.2 mi WNW 10.4 mph - N/A   Overcast
4:00 PM 35.6 °F 27.1 °F 30.2 °F 81% 30.09 in 6.2 mi NNW 12.7 mph - N/A   Overcast
5:00 PM 35.6 °F 27.5 °F 30.2 °F 81% 30.09 in 6.2 mi NW 11.5 mph - N/A   Overcast
7:00 PM 35.6 °F 28.0 °F 30.2 °F 81% 30.15 in 6.2 mi WNW 10.4 mph - N/A   Overcast
8:00 PM 33.8 °F 25.8 °F 30.2 °F 87% 30.15 in 6.2 mi WNW 10.4 mph - N/A   Overcast
9:00 PM 33.8 °F 26.4 °F 30.2 °F 87% 30.15 in 6.2 mi WNW 9.2 mph - N/A   Scattered Clouds
10:00 PM 32.0 °F 25.6 °F 28.4 °F 87% 30.18 in 6.2 mi NW 6.9 mph - N/A   Mostly Cloudy
11:00 PM 30.2 °F 23.4 °F 28.4 °F 93% 30.18 in 6.2 mi WNW 6.9 mph - N/A   Scattered Clouds